Regional Weather Roundup
Issued by NWS Northern Indiana

Home | Current Version | Previous Version | Graphics & Text | Print | Product List | Glossary On
Versions: 1 2 3 4 5 6 7 8 9 10 11 12 13 14 15 16 17 18 19 20 21 22 23 24 25 26 27 28 29 30 31 32 33 34 35 36 37 38 39 40 41 42 43 44 45 46 47 48 49 50
000
ASUS43 KIWX 071600
RWRIWX

KIWX WEATHER ROUNDUP
NATIONAL WEATHER SERVICE NORTHERN INDIANA
1100 AM EST WED DEC 07 2016

NOTE: "FAIR" INDICATES FEW OR NO CLOUDS BELOW 12,000 FEET WITH NO
SIGNIFICANT WEATHER AND/OR OBSTRUCTIONS TO VISIBILITY.

* THESE STATIONS ARE NOT UNDER NWS QUALITY CONTROL. THEY ALSO MAY NOT
  REPORT WEATHER SUCH AS PRECIPITATION OR FOG.

INZ001>027-071700-
NORTHERN INDIANA

CITY           SKY/WX    TMP DP  RH WIND       PRES   REMARKS
GARY*          PTSUNNY   30  19  64 W12G23    30.13R WCI  21
SOUTH BEND     MOSUNNY   30  21  69 W13G18    30.10R WCI  20
ELKHART*       MOSUNNY   32  21  64 W9        30.08  WCI  24
GOSHEN           N/A    N/A N/A N/A MISG      30.08R
ANGOLA*        SUNNY     30  23  74 W12       30.05S WCI  21
FORT WAYNE     PTSUNNY   32  23  69 SW15      30.11R WCI  22
PERU/GRISSOM   PTSUNNY   31  22  69 W16       30.13R WCI  20

$$
INZ028>050-071700-
CENTRAL INDIANA

CITY           SKY/WX    TMP DP  RH WIND       PRES   REMARKS
LAFAYETTE      CLOUDY    30  21  69 W9        30.17R WCI  22
KOKOMO*        PTSUNNY   32  22  66 SW15      30.15R WCI  22
MUNCIE*        SUNNY     33  21  61 SW10      30.15R WCI  25
INDIANAPOLIS   PTSUNNY   33  22  63 W12       30.17S WCI  24

$$
MIZ043>046-050>051-056>058-064>065-071>073-077>080-071700-
SOUTHWEST LOWER MICHIGAN

CITY           SKY/WX    TMP DP  RH WIND       PRES   REMARKS
BATTLE CREEK   MOSUNNY   35  24  64 W15G28    30.01R WCI  25
BENTON HARBOR  PTSUNNY   33  23  66 W14G24    30.07R WCI  23
COLDWATER*     SUNNY     33  24  68 W13       30.03S WCI  24
HILLSDALE*     SUNNY     32  23  69 W10G16    30.01S WCI  24
HOLLAND        PTSUNNY   33  24  69 W21       30.02R WCI  21
GRAND RAPIDS   CLOUDY    32  22  66 W17G28    30.00R WCI  21
KALAMAZOO      MOSUNNY   34  22  61 W13G21    30.03R WCI  25
STURGIS*       SUNNY     32  23  68 MISG      30.04R
THREE RIVERS*  FAIR      33  24  69 W9        30.05R WCI  25

$$
OHZ001>008-015>018-024>025-071700-
NORTHWEST OHIO

CITY           SKY/WX    TMP DP  RH WIND       PRES   REMARKS
DEFIANCE       CLOUDY    32  21  64 SW9G17    30.09R WCI  24
FINDLAY        MOSUNNY   32  22  66 SW9       30.09S WCI  24
TOLEDO EXPRESS MOSUNNY   30  23  75 SW12      30.08R WCI  20
TOLEDO METCALF MOSUNNY   32  25  75 SW14      30.08R WCI  22
LIMA           MOSUNNY   31  23  72 SW14      30.11R WCI  21

$$
AND FOR LAKE MICHIGAN COASTAL AND OPEN LAKE BUOY OBSERVATIONS

STATION/POSITION TEMP    WIND        PRES    VSBY  WAVE
                 AIR SEA DIR/SP/G                  HT/PER
                 (F)     (DEG/KT/KT) (MB)    (MI)  (FT/S)
CALUMET HARBOR    27     250/  7/ 14 1019.0R
MICHIGAN CITY     30     230/ 21/ 25   N/A
BURNS HARBOR      30     240/ 15/ 21 1020.0R
SAINT JOSEPH      33     260/ 15/ 23 1018.6R

$$
&&




USA.gov is the U.S. government's official web portal to all federal, state and local government web resources and services.